| time (UTC) | temp F | wind direction | speed MPH | gust MPH | rain 1hr in | rain 24hr in | rain mn in | humidity % | barometer mb |
| 20260831200503 | 66 | 260 | 3.0 | 8.0 | 0.00 | 0.08 | 0.01 | 46 | 1042.5 |
| 20260831200003 | 66 | 254 | 3.0 | 8.0 | 0.00 | 0.24 | 0.01 | 48 | 1042.7 |
| 20260831195503 | 66 | 238 | 3.0 | 7.0 | 0.00 | 0.29 | 0.01 | 45 | 1042.7 |
| 20260831195003 | 65 | 229 | 3.0 | 9.0 | 0.00 | 0.29 | 0.01 | 48 | 1042.8 |
| 20260831194503 | 65 | 272 | 4.0 | 9.0 | 0.00 | 0.29 | 0.01 | 47 | 1042.7 |
| 20260831194003 | 66 | 291 | 4.0 | 9.0 | 0.00 | 0.29 | 0.01 | 46 | 1042.7 |
| 20260831193503 | 66 | 238 | 3.0 | 9.0 | 0.00 | 0.29 | 0.01 | 46 | 1042.9 |
| 20260831193016 | 65 | 152 | 3.0 | 10.0 | 0.00 | 0.29 | 0.01 | 50 | 1042.9 |
| 20260831192718 | 65 | 131 | 3.0 | 10.0 | 0.00 | 0.29 | 0.01 | 50 | 1042.9 |
| 20260831192003 | 64 | 123 | 3.0 | 7.0 | 0.00 | 0.29 | 0.01 | 52 | 1043.1 |
| 20260831191719 | 64 | 140 | 3.0 | 7.0 | 0.00 | 0.29 | 0.01 | 52 | 1043.0 |
| 20260831191003 | 64 | 167 | 3.0 | 7.0 | 0.00 | 0.29 | 0.01 | 53 | 1043.2 |
| 20260831190503 | 63 | 143 | 4.0 | 8.0 | 0.00 | 0.29 | 0.01 | 55 | 1043.3 |
| 20260831190004 | 62 | 177 | 3.0 | 8.0 | 0.00 | 0.29 | 0.01 | 55 | 1043.4 |
| 20260831185503 | 62 | 221 | 3.0 | 8.0 | 0.00 | 0.29 | 0.01 | 55 | 1043.4 |
| 20260831185003 | 62 | 237 | 3.0 | 8.0 | 0.00 | 0.29 | 0.01 | 57 | 1043.4 |
| 20260831184503 | 62 | 162 | 4.0 | 12.0 | 0.00 | 0.29 | 0.01 | 57 | 1043.4 |
| 20260831184004 | 62 | 144 | 4.0 | 12.0 | 0.00 | 0.29 | 0.01 | 57 | 1043.5 |
| 20260831183717 | 61 | 162 | 4.0 | 9.0 | 0.00 | 0.29 | 0.01 | 57 | 1043.7 |
| 20260831183003 | 61 | 196 | 2.0 | 7.0 | 0.00 | 0.29 | 0.01 | 59 | 1043.8 |
| 20260831182503 | 60 | 158 | 3.0 | 8.0 | 0.00 | 0.29 | 0.01 | 57 | 1043.9 |
| 20260831182003 | 60 | 164 | 3.0 | 8.0 | 0.00 | 0.29 | 0.01 | 57 | 1043.9 |
| 20260831181503 | 60 | 250 | 2.0 | 6.0 | 0.00 | 0.29 | 0.01 | 58 | 1044.0 |
| 20260831181003 | 59 | 289 | 2.0 | 7.0 | 0.00 | 0.29 | 0.01 | 59 | 1044.0 |
| 20260831180504 | 59 | 283 | 3.0 | 7.0 | 0.00 | 0.29 | 0.01 | 60 | 1043.9 |
| 20260831180004 | 58 | 281 | 2.0 | 7.0 | 0.00 | 0.29 | 0.01 | 63 | 1044.1 |
| 20260831175504 | 58 | 279 | 2.0 | 6.0 | 0.00 | 0.29 | 0.01 | 65 | 1044.1 |
| 20260831175003 | 58 | 275 | 3.0 | 7.0 | 0.00 | 0.29 | 0.01 | 64 | 1044.2 |
| 20260831174503 | 58 | 270 | 2.0 | 7.0 | 0.00 | 0.29 | 0.01 | 65 | 1044.4 |
| 20260831174003 | 58 | 272 | 1.0 | 4.0 | 0.00 | 0.29 | 0.01 | 66 | 1044.4 |
| 20260831173503 | 58 | 272 | 2.0 | 4.0 | 0.00 | 0.29 | 0.01 | 63 | 1044.4 |
| 20260831173003 | 58 | 260 | 2.0 | 4.0 | 0.00 | 0.29 | 0.01 | 62 | 1044.4 |
| 20260831172503 | 58 | 253 | 2.0 | 3.0 | 0.00 | 0.29 | 0.01 | 64 | 1044.4 |
| 20260831172003 | 58 | 253 | 2.0 | 3.0 | 0.00 | 0.29 | 0.01 | 63 | 1044.2 |
| 20260831171503 | 57 | 249 | 2.0 | 4.0 | 0.00 | 0.29 | 0.01 | 65 | 1044.2 |
| 20260831171003 | 57 | 269 | 2.0 | 5.0 | 0.00 | 0.29 | 0.01 | 62 | 1044.3 |
| 20260831170503 | 57 | 290 | 3.0 | 5.0 | 0.00 | 0.29 | 0.01 | 62 | 1044.3 |
| 20260831170004 | 57 | 269 | 3.0 | 6.0 | 0.00 | 0.29 | 0.01 | 60 | 1044.2 |
| 20260831165503 | 58 | 277 | 3.0 | 6.0 | 0.00 | 0.29 | 0.01 | 62 | 1044.3 |
| 20260831165003 | 58 | 278 | 3.0 | 6.0 | 0.00 | 0.29 | 0.01 | 61 | 1044.4 |
| 20260831164503 | 58 | 253 | 3.0 | 6.0 | 0.00 | 0.29 | 0.01 | 59 | 1044.4 |
| 20260831164003 | 58 | 265 | 3.0 | 7.0 | 0.00 | 0.29 | 0.01 | 59 | 1044.3 |
| 20260831163503 | 58 | 263 | 3.0 | 7.0 | 0.00 | 0.29 | 0.01 | 59 | 1044.2 |
| 20260831163004 | 58 | 265 | 3.0 | 7.0 | 0.00 | 0.29 | 0.01 | 60 | 1044.2 |
| 20260831162503 | 58 | 272 | 3.0 | 7.0 | 0.00 | 0.29 | 0.01 | 60 | 1044.0 |
| 20260831162003 | 58 | 258 | 3.0 | 7.0 | 0.00 | 0.29 | 0.01 | 60 | 1044.0 |
| 20260831161503 | 58 | 253 | 3.0 | 7.0 | 0.00 | 0.29 | 0.01 | 59 | 1043.9 |
| 20260831161003 | 58 | 260 | 4.0 | 7.0 | 0.00 | 0.29 | 0.01 | 60 | 1043.9 |
| 20260831160503 | 58 | 267 | 4.0 | 7.0 | 0.00 | 0.29 | 0.01 | 59 | 1043.8 |
| 20260831160004 | 58 | 272 | 4.0 | 7.0 | 0.00 | 0.29 | 0.01 | 59 | 1043.8 |
| 20260831155503 | 58 | 264 | 3.0 | 8.0 | 0.00 | 0.29 | 0.01 | 60 | 1043.8 |
| 20260831155220 | 58 | 258 | 4.0 | 8.0 | 0.00 | 0.29 | 0.01 | 59 | 1043.8 |
| 20260831154503 | 58 | 259 | 3.0 | 8.0 | 0.00 | 0.29 | 0.01 | 58 | 1043.7 |
| 20260831154003 | 58 | 284 | 2.0 | 6.0 | 0.00 | 0.29 | 0.01 | 58 | 1043.7 |
| 20260831153503 | 58 | 283 | 2.0 | 6.0 | 0.00 | 0.29 | 0.01 | 59 | 1043.6 |
| 20260831153003 | 58 | 272 | 2.0 | 4.0 | 0.00 | 0.29 | 0.01 | 57 | 1043.5 |
| 20260831152503 | 58 | 271 | 1.0 | 3.0 | 0.00 | 0.29 | 0.01 | 58 | 1043.5 |
| 20260831152003 | 58 | 267 | 1.0 | 4.0 | 0.00 | 0.29 | 0.01 | 58 | 1043.5 |
| 20260831151503 | 58 | 270 | 2.0 | 4.0 | 0.00 | 0.29 | 0.01 | 59 | 1043.5 |
| 20260831151003 | 58 | 273 | 2.0 | 4.0 | 0.00 | 0.29 | 0.01 | 58 | 1043.6 |
| 20260831150503 | 59 | 266 | 2.0 | 4.0 | 0.00 | 0.29 | 0.01 | 55 | 1043.4 |
| 20260831150003 | 59 | 256 | 2.0 | 4.0 | 0.00 | 0.29 | 0.01 | 56 | 1043.4 |
| 20260831145718 | 59 | 266 | 2.0 | 4.0 | 0.00 | 0.29 | 0.01 | 55 | 1043.3 |
| 20260831145221 | 59 | 269 | 2.0 | 4.0 | 0.00 | 0.29 | 0.01 | 56 | 1043.2 |
| 20260831144503 | 58 | 246 | 2.0 | 3.0 | 0.00 | 0.29 | 0.01 | 57 | 1043.1 |
| 20260831144003 | 58 | 242 | 1.0 | 3.0 | 0.00 | 0.29 | 0.01 | 59 | 1043.0 |
| 20260831143503 | 58 | 236 | 1.0 | 3.0 | 0.00 | 0.29 | 0.01 | 57 | 1043.0 |
| 20260831143003 | 58 | 217 | 1.0 | 4.0 | 0.00 | 0.29 | 0.01 | 59 | 1043.0 |
| 20260831142503 | 58 | 263 | 2.0 | 4.0 | 0.00 | 0.29 | 0.01 | 57 | 1043.0 |
| 20260831142219 | 58 | 285 | 2.0 | 4.0 | 0.00 | 0.29 | 0.01 | 58 | 1043.0 |
| 20260831141504 | 57 | 284 | 3.0 | 8.0 | 0.00 | 0.29 | 0.01 | 57 | 1042.9 |
| 20260831141003 | 57 | 270 | 3.0 | 8.0 | 0.00 | 0.29 | 0.01 | 57 | 1042.9 |
| 20260831140503 | 57 | 268 | 3.0 | 7.0 | 0.00 | 0.29 | 0.01 | 58 | 1042.9 |
| 20260831140003 | 57 | 270 | 2.0 | 7.0 | 0.00 | 0.29 | 0.01 | 58 | 1043.0 |
| 20260831135719 | 57 | 266 | 2.0 | 7.0 | 0.00 | 0.29 | 0.01 | 58 | 1043.0 |
| 20260831135003 | 57 | 257 | 3.0 | 7.0 | 0.00 | 0.29 | 0.01 | 58 | 1042.7 |
| 20260831134503 | 57 | 256 | 3.0 | 7.0 | 0.00 | 0.29 | 0.01 | 59 | 1042.6 |
| 20260831134217 | 56 | 260 | 3.0 | 7.0 | 0.00 | 0.29 | 0.01 | 59 | 1042.6 |
| 20260831133503 | 56 | 267 | 2.0 | 6.0 | 0.00 | 0.29 | 0.01 | 61 | 1042.7 |
| 20260831133003 | 55 | 291 | 2.0 | 4.0 | 0.00 | 0.29 | 0.01 | 62 | 1042.6 |
| 20260831132503 | 54 | 338 | 1.0 | 4.0 | 0.00 | 0.29 | 0.01 | 63 | 1042.6 |
| 20260831132003 | 54 | 70 | 0.0 | 3.0 | 0.00 | 0.29 | 0.01 | 64 | 1042.5 |
| 20260831131503 | 54 | 91 | 1.0 | 4.0 | 0.00 | 0.29 | 0.01 | 64 | 1042.5 |
| 20260831131003 | 54 | 59 | 1.0 | 4.0 | 0.00 | 0.29 | 0.01 | 65 | 1042.4 |
| 20260831130503 | 54 | 311 | 1.0 | 5.0 | 0.00 | 0.29 | 0.01 | 65 | 1042.3 |
| 20260831130004 | 54 | 308 | 2.0 | 5.0 | 0.00 | 0.29 | 0.01 | 66 | 1042.2 |
| 20260831125503 | 53 | 309 | 2.0 | 5.0 | 0.00 | 0.29 | 0.01 | 66 | 1042.2 |
| 20260831125003 | 53 | 309 | 1.0 | 4.0 | 0.00 | 0.29 | 0.01 | 68 | 1042.0 |
| 20260831124503 | 52 | 243 | 0.0 | 2.0 | 0.00 | 0.29 | 0.01 | 68 | 1042.0 |
| 20260831124003 | 52 | 243 | 0.0 | 1.0 | 0.00 | 0.29 | 0.01 | 68 | 1041.9 |
| 20260831123503 | 52 | 242 | 0.0 | 1.0 | 0.00 | 0.29 | 0.01 | 68 | 1041.8 |
| 20260831123003 | 52 | 242 | 0.0 | 1.0 | 0.00 | 0.29 | 0.01 | 68 | 1041.9 |
| 20260831122503 | 53 | 240 | 0.0 | 3.0 | 0.00 | 0.29 | 0.01 | 68 | 1041.8 |
| 20260831122003 | 53 | 240 | 1.0 | 3.0 | 0.00 | 0.29 | 0.01 | 68 | 1041.8 |
| 20260831121503 | 54 | 240 | 0.0 | 3.0 | 0.00 | 0.29 | 0.01 | 66 | 1041.8 |
| 20260831121003 | 54 | 240 | 0.0 | 2.0 | 0.00 | 0.29 | 0.01 | 63 | 1041.8 |
| 20260831120503 | 54 | 240 | 0.0 | 2.0 | 0.00 | 0.29 | 0.01 | 62 | 1041.8 |
| 20260831120003 | 54 | 240 | 0.0 | 1.0 | 0.00 | 0.29 | 0.01 | 62 | 1041.7 |
| 20260831115503 | 54 | 217 | 1.0 | 5.0 | 0.00 | 0.29 | 0.01 | 63 | 1041.6 |
| 20260831115003 | 54 | 262 | 2.0 | 5.0 | 0.00 | 0.29 | 0.01 | 63 | 1041.6 |
| 20260831114503 | 54 | 285 | 2.0 | 4.0 | 0.00 | 0.29 | 0.01 | 63 | 1041.5 |
| 20260831114003 | 54 | 300 | 3.0 | 7.0 | 0.00 | 0.29 | 0.01 | 65 | 1041.3 |
| 20260831113503 | 53 | 296 | 2.0 | 7.0 | 0.00 | 0.29 | 0.01 | 65 | 1041.3 |
| 20260831113220 | 53 | 212 | 2.0 | 7.0 | 0.00 | 0.29 | 0.01 | 66 | 1041.3 |
| 20260831112718 | 53 | 161 | 1.0 | 4.0 | 0.00 | 0.29 | 0.01 | 67 | 1041.5 |
| 20260831112221 | 53 | 156 | 0.0 | 3.0 | 0.00 | 0.29 | 0.01 | 67 | 1041.5 |
| 20260831111719 | 52 | 156 | 1.0 | 2.0 | 0.00 | 0.29 | 0.01 | 67 | 1041.5 |
| 20260831111216 | 52 | 156 | 1.0 | 3.0 | 0.00 | 0.29 | 0.01 | 68 | 1041.5 |
| 20260831110503 | 52 | 157 | 1.0 | 3.0 | 0.00 | 0.29 | 0.01 | 69 | 1041.5 |
| 20260831110003 | 52 | 157 | 1.0 | 2.0 | 0.00 | 0.29 | 0.01 | 70 | 1041.5 |
| 20260831105503 | 52 | 157 | 1.0 | 2.0 | 0.00 | 0.29 | 0.01 | 68 | 1041.5 |
| 20260831105003 | 52 | 157 | 1.0 | 2.0 | 0.00 | 0.29 | 0.01 | 69 | 1041.5 |
| 20260831104503 | 52 | 157 | 1.0 | 3.0 | 0.00 | 0.29 | 0.01 | 68 | 1041.4 |
| 20260831104003 | 53 | 156 | 1.0 | 3.0 | 0.00 | 0.29 | 0.01 | 68 | 1041.5 |
| 20260831103503 | 53 | 155 | 1.0 | 2.0 | 0.00 | 0.29 | 0.01 | 68 | 1041.7 |
| 20260831103003 | 53 | 155 | 1.0 | 2.0 | 0.00 | 0.29 | 0.01 | 67 | 1041.5 |
| 20260831102503 | 53 | 161 | 1.0 | 3.0 | 0.00 | 0.29 | 0.01 | 67 | 1041.5 |
| 20260831102003 | 53 | 187 | 1.0 | 3.0 | 0.00 | 0.29 | 0.01 | 68 | 1041.5 |
| 20260831101504 | 53 | 247 | 1.0 | 3.0 | 0.00 | 0.29 | 0.01 | 68 | 1041.6 |
| 20260831101003 | 52 | 269 | 2.0 | 10.0 | 0.01 | 0.29 | 0.01 | 68 | 1041.6 |
| 20260831100720 | 52 | 279 | 2.0 | 10.0 | 0.01 | 0.29 | 0.01 | 69 | 1041.5 |
| 20260831100003 | 52 | 306 | 2.0 | 4.0 | 0.01 | 0.29 | 0.01 | 71 | 1041.5 |
| 20260831095503 | 52 | 306 | 1.0 | 4.0 | 0.01 | 0.29 | 0.01 | 69 | 1041.4 |
| 20260831095003 | 52 | 302 | 1.0 | 3.0 | 0.01 | 0.29 | 0.01 | 70 | 1041.5 |
| 20260831094503 | 53 | 302 | 1.0 | 3.0 | 0.01 | 0.29 | 0.01 | 68 | 1041.5 |
| 20260831094003 | 53 | 302 | 0.0 | 2.0 | 0.01 | 0.29 | 0.01 | 66 | 1041.5 |
| 20260831093503 | 53 | 302 | 0.0 | 2.0 | 0.01 | 0.29 | 0.01 | 66 | 1041.5 |
| 20260831093003 | 53 | 302 | 0.0 | 2.0 | 0.01 | 0.29 | 0.01 | 67 | 1041.3 |
| 20260831092503 | 54 | 302 | 0.0 | 1.0 | 0.01 | 0.29 | 0.01 | 67 | 1041.3 |
| 20260831092003 | 54 | 300 | 0.0 | 3.0 | 0.01 | 0.29 | 0.01 | 66 | 1041.3 |
| 20260831091503 | 54 | 298 | 1.0 | 4.0 | 0.01 | 0.29 | 0.01 | 64 | 1041.3 |
| 20260831091218 | 55 | 298 | 2.0 | 4.0 | 0.00 | 0.28 | 0.00 | 64 | 1041.3 |
| 20260831090503 | 55 | 304 | 2.0 | 6.0 | 0.00 | 0.28 | 0.00 | 63 | 1041.3 |
| 20260831090004 | 55 | 308 | 3.0 | 9.0 | 0.00 | 0.28 | 0.00 | 63 | 1041.3 |
| 20260831085503 | 55 | 304 | 3.0 | 9.0 | 0.00 | 0.28 | 0.00 | 63 | 1041.3 |
| 20260831085003 | 55 | 280 | 4.0 | 12.0 | 0.00 | 0.28 | 0.00 | 64 | 1041.2 |
| 20260831084718 | 55 | 269 | 5.0 | 12.0 | 0.00 | 0.28 | 0.00 | 63 | 1041.1 |
| 20260831084003 | 55 | 274 | 6.0 | 12.0 | 0.00 | 0.28 | 0.00 | 63 | 1041.0 |
| 20260831083503 | 55 | 291 | 5.0 | 12.0 | 0.00 | 0.28 | 0.00 | 63 | 1041.0 |
| 20260831083003 | 55 | 298 | 5.0 | 11.0 | 0.00 | 0.28 | 0.00 | 62 | 1041.1 |
| 20260831082503 | 55 | 302 | 5.0 | 11.0 | 0.00 | 0.28 | 0.00 | 63 | 1041.1 |
| 20260831082217 | 55 | 292 | 4.0 | 9.0 | 0.00 | 0.28 | 0.00 | 64 | 1041.3 |
| 20260831081503 | 54 | 293 | 4.0 | 8.0 | 0.00 | 0.28 | 0.00 | 65 | 1041.4 |
| 20260831081003 | 54 | 306 | 3.0 | 8.0 | 0.00 | 0.28 | 0.00 | 64 | 1041.3 |
| 20260831080503 | 53 | 314 | 3.0 | 5.0 | 0.00 | 0.28 | 0.00 | 68 | 1041.3 |
| 20260831080003 | 53 | 321 | 3.0 | 5.0 | 0.00 | 0.28 | 0.00 | 69 | 1041.4 |
| 20260831075503 | 53 | 331 | 1.0 | 4.0 | 0.00 | 0.28 | 0.00 | 70 | 1041.5 |
| 20260831075220 | 53 | 348 | 1.0 | 4.0 | 0.00 | 0.28 | 0.00 | 71 | 1041.5 |
| 20260831074503 | 54 | 13 | 1.0 | 3.0 | 0.00 | 0.28 | 0.00 | 70 | 1041.7 |
| 20260831074221 | 54 | 24 | 1.0 | 3.0 | 0.00 | 0.28 | 0.00 | 70 | 1041.8 |
| 20260831073719 | 54 | 58 | 1.0 | 3.0 | 0.00 | 0.28 | 0.00 | 69 | 1042.0 |
| 20260831073003 | 53 | 78 | 1.0 | 3.0 | 0.00 | 0.28 | 0.00 | 69 | 1042.1 |
| 20260831072503 | 54 | 78 | 1.0 | 3.0 | 0.00 | 0.28 | 0.00 | 69 | 1041.9 |
| 20260831072003 | 54 | 81 | 1.0 | 3.0 | 0.00 | 0.28 | 0.00 | 71 | 1042.1 |
| 20260831071503 | 54 | 88 | 0.0 | 3.0 | 0.00 | 0.28 | 0.00 | 70 | 1042.2 |
| 20260831071003 | 55 | 88 | 2.0 | 7.0 | 0.00 | 0.28 | 0.00 | 69 | 1042.2 |
| 20260831070717 | 55 | 100 | 3.0 | 7.0 | 0.00 | 0.28 | 0.00 | 70 | 1042.2 |
| 20260831070003 | 56 | 178 | 2.0 | 7.0 | 0.00 | 0.28 | 0.00 | 60 | 1042.6 |
| 20260831065503 | 57 | 221 | 2.0 | 6.0 | 0.00 | 0.28 | 0.00 | 60 | 1042.6 |
| 20260831065221 | 57 | 234 | 3.0 | 6.0 | 0.00 | 0.28 | 0.00 | 60 | 1042.6 |
| 20260831064503 | 57 | 257 | 5.0 | 11.0 | 0.00 | 0.28 | 0.00 | 59 | 1042.7 |
| 20260831064003 | 57 | 294 | 6.0 | 13.0 | 0.00 | 0.28 | 0.00 | 60 | 1043.3 |
| 20260831063503 | 57 | 313 | 8.0 | 15.0 | 0.00 | 0.28 | 0.00 | 59 | 1043.5 |
| 20260831063003 | 56 | 311 | 7.0 | 15.0 | 0.00 | 0.28 | 0.00 | 61 | 1043.4 |
| 20260831062503 | 56 | 308 | 5.0 | 14.0 | 0.00 | 0.28 | 0.00 | 60 | 1043.5 |
| 20260831062003 | 56 | 311 | 5.0 | 14.0 | 0.00 | 0.28 | 0.00 | 62 | 1043.6 |
| 20260831061503 | 57 | 313 | 4.0 | 12.0 | 0.00 | 0.28 | 0.00 | 60 | 1043.6 |
| 20260831061003 | 57 | 312 | 3.0 | 8.0 | 0.00 | 0.28 | 0.00 | 59 | 1043.4 |
| 20260831060717 | 57 | 309 | 3.0 | 8.0 | 0.00 | 0.28 | 0.00 | 60 | 1043.3 |
| 20260831060003 | 57 | 286 | 4.0 | 8.0 | 0.00 | 0.28 | 0.00 | 60 | 1043.2 |
| 20260831055503 | 57 | 300 | 5.0 | 14.0 | 0.00 | 0.28 | 0.28 | 61 | 1043.3 |
| 20260831055217 | 57 | 306 | 6.0 | 14.0 | 0.00 | 0.28 | 0.28 | 59 | 1043.2 |
| 20260831054503 | 57 | 294 | 5.0 | 11.0 | 0.00 | 0.28 | 0.28 | 59 | 1042.9 |
| 20260831054003 | 57 | 295 | 5.0 | 11.0 | 0.00 | 0.28 | 0.28 | 61 | 1042.9 |
| 20260831053720 | 57 | 304 | 6.0 | 13.0 | 0.00 | 0.28 | 0.28 | 60 | 1042.9 |
| 20260831053003 | 56 | 318 | 7.0 | 15.0 | 0.00 | 0.28 | 0.28 | 63 | 1042.8 |
| 20260831052721 | 55 | 317 | 7.0 | 15.0 | 0.00 | 0.28 | 0.28 | 64 | 1042.8 |
| 20260831052003 | 54 | 314 | 8.0 | 14.0 | 0.00 | 0.28 | 0.28 | 67 | 1043.1 |
| 20260831051717 | 54 | 314 | 8.0 | 14.0 | 0.00 | 0.28 | 0.28 | 68 | 1043.1 |
| 20260831051003 | 54 | 315 | 9.0 | 15.0 | 0.00 | 0.28 | 0.28 | 69 | 1043.2 |
| 20260831050503 | 54 | 317 | 10.0 | 19.0 | 0.00 | 0.28 | 0.28 | 69 | 1043.3 |
| 20260831050003 | 54 | 316 | 11.0 | 19.0 | 0.00 | 0.28 | 0.28 | 69 | 1043.1 |
| 20260831045503 | 54 | 316 | 11.0 | 18.0 | 0.00 | 0.28 | 0.28 | 70 | 1043.1 |
| 20260831045003 | 54 | 316 | 10.0 | 18.0 | 0.00 | 0.28 | 0.28 | 70 | 1043.3 |
| 20260831044503 | 54 | 314 | 10.0 | 18.0 | 0.00 | 0.28 | 0.28 | 69 | 1043.5 |
| 20260831044003 | 55 | 318 | 10.0 | 19.0 | 0.00 | 0.28 | 0.28 | 69 | 1043.5 |
| 20260831043504 | 55 | 318 | 11.0 | 22.0 | 0.00 | 0.28 | 0.28 | 67 | 1043.6 |
| 20260831043219 | 55 | 317 | 10.0 | 22.0 | 0.00 | 0.28 | 0.28 | 67 | 1043.4 |
| 20260831042503 | 55 | 315 | 10.0 | 20.0 | 0.00 | 0.28 | 0.28 | 69 | 1043.4 |
| 20260831042003 | 54 | 316 | 10.0 | 15.0 | 0.00 | 0.28 | 0.28 | 69 | 1043.4 |
| 20260831041503 | 54 | 316 | 10.0 | 14.0 | 0.00 | 0.28 | 0.28 | 72 | 1043.3 |
| 20260831041003 | 53 | 314 | 8.0 | 14.0 | 0.00 | 0.28 | 0.28 | 74 | 1043.2 |
| 20260831040503 | 52 | 310 | 5.0 | 12.0 | 0.00 | 0.28 | 0.28 | 77 | 1043.1 |
| 20260831040004 | 52 | 304 | 3.0 | 8.0 | 0.00 | 0.28 | 0.28 | 81 | 1043.2 |
| 20260831035503 | 52 | 283 | 2.0 | 4.0 | 0.00 | 0.28 | 0.28 | 84 | 1043.3 |
| 20260831035004 | 53 | 276 | 3.0 | 5.0 | 0.00 | 0.28 | 0.28 | 81 | 1043.3 |
| 20260831034503 | 54 | 298 | 4.0 | 10.0 | 0.00 | 0.28 | 0.28 | 75 | 1043.4 |
| 20260831034003 | 54 | 311 | 6.0 | 12.0 | 0.01 | 0.28 | 0.28 | 72 | 1042.9 |
| 20260831033503 | 54 | 313 | 7.0 | 12.0 | 0.02 | 0.28 | 0.28 | 72 | 1042.6 |
| 20260831033004 | 53 | 312 | 7.0 | 12.0 | 0.02 | 0.28 | 0.28 | 75 | 1042.4 |
| 20260831032503 | 53 | 311 | 7.0 | 12.0 | 0.02 | 0.28 | 0.28 | 76 | 1042.4 |
| 20260831032003 | 53 | 312 | 8.0 | 13.0 | 0.02 | 0.28 | 0.28 | 77 | 1042.2 |
| 20260831031503 | 53 | 316 | 9.0 | 13.0 | 0.03 | 0.28 | 0.28 | 79 | 1042.2 |
| 20260831031003 | 52 | 320 | 10.0 | 17.0 | 0.03 | 0.28 | 0.28 | 80 | 1042.0 |
| 20260831030503 | 52 | 320 | 9.0 | 17.0 | 0.03 | 0.28 | 0.28 | 81 | 1042.1 |
| 20260831030003 | 52 | 317 | 8.0 | 17.0 | 0.03 | 0.28 | 0.28 | 83 | 1042.1 |
| 20260831025503 | 52 | 310 | 7.0 | 17.0 | 0.03 | 0.28 | 0.28 | 82 | 1042.6 |
| 20260831025218 | 52 | 309 | 6.0 | 12.0 | 0.03 | 0.28 | 0.28 | 83 | 1042.7 |
| 20260831024503 | 52 | 318 | 7.0 | 13.0 | 0.03 | 0.28 | 0.28 | 80 | 1042.7 |
| 20260831024003 | 53 | 318 | 8.0 | 13.0 | 0.02 | 0.27 | 0.27 | 79 | 1042.6 |
| 20260831023503 | 53 | 315 | 8.0 | 14.0 | 0.01 | 0.26 | 0.26 | 78 | 1042.6 |
| 20260831023003 | 53 | 304 | 7.0 | 16.0 | 0.01 | 0.26 | 0.26 | 78 | 1042.6 |
| 20260831022718 | 54 | 308 | 9.0 | 16.0 | 0.01 | 0.26 | 0.26 | 77 | 1042.2 |
| 20260831022003 | 56 | 317 | 10.0 | 20.0 | 0.01 | 0.26 | 0.26 | 72 | 1041.8 |
| 20260831021503 | 58 | 311 | 10.0 | 20.0 | 0.00 | 0.25 | 0.25 | 66 | 1041.7 |
| 20260831021003 | 59 | 303 | 8.0 | 19.0 | 0.00 | 0.25 | 0.25 | 63 | 1041.4 |
| 20260831020503 | 59 | 301 | 5.0 | 11.0 | 0.00 | 0.25 | 0.25 | 57 | 1040.9 |
| 20260831020003 | 58 | 310 | 3.0 | 8.0 | 0.00 | 0.25 | 0.25 | 61 | 1040.8 |
| 20260831015503 | 57 | 320 | 3.0 | 6.0 | 0.00 | 0.25 | 0.25 | 63 | 1040.8 |
| 20260831015003 | 57 | 320 | 3.0 | 6.0 | 0.00 | 0.25 | 0.25 | 65 | 1040.8 |
| 20260831014503 | 57 | 317 | 4.0 | 9.0 | 0.00 | 0.25 | 0.25 | 66 | 1040.8 |
| 20260831014003 | 57 | 316 | 6.0 | 13.0 | 0.00 | 0.25 | 0.25 | 66 | 1040.8 |
| 20260831013503 | 58 | 317 | 7.0 | 14.0 | 0.00 | 0.25 | 0.25 | 66 | 1040.8 |
| 20260831013003 | 58 | 320 | 9.0 | 14.0 | 0.00 | 0.25 | 0.25 | 65 | 1040.7 |
| 20260831012503 | 58 | 318 | 10.0 | 14.0 | 0.00 | 0.25 | 0.25 | 64 | 1040.8 |
| 20260831012003 | 58 | 313 | 9.0 | 14.0 | 0.00 | 0.25 | 0.25 | 64 | 1040.6 |
| 20260831011503 | 58 | 312 | 9.0 | 15.0 | 0.00 | 0.25 | 0.25 | 66 | 1040.7 |
| 20260831011003 | 58 | 312 | 7.0 | 15.0 | 0.00 | 0.25 | 0.25 | 65 | 1040.6 |
| 20260831010504 | 59 | 314 | 8.0 | 14.0 | 0.00 | 0.25 | 0.25 | 63 | 1040.8 |
| 20260831010004 | 59 | 316 | 10.0 | 14.0 | 0.00 | 0.25 | 0.25 | 64 | 1040.6 |
| 20260831005717 | 59 | 315 | 10.0 | 20.0 | 0.00 | 0.25 | 0.25 | 63 | 1040.5 |
| 20260831005003 | 59 | 313 | 11.0 | 20.0 | 0.00 | 0.25 | 0.25 | 63 | 1040.5 |
| 20260831004503 | 59 | 312 | 11.0 | 17.0 | 0.00 | 0.25 | 0.25 | 65 | 1040.5 |
| 20260831004003 | 60 | 313 | 11.0 | 17.0 | 0.00 | 0.25 | 0.25 | 63 | 1040.5 |
| 20260831003503 | 61 | 300 | 10.0 | 21.0 | 0.00 | 0.25 | 0.25 | 60 | 1040.6 |
| 20260831003003 | 62 | 163 | 9.0 | 21.0 | 0.00 | 0.25 | 0.25 | 55 | 1040.8 |
| 20260831002720 | 63 | 176 | 8.0 | 21.0 | 0.00 | 0.25 | 0.25 | 53 | 1040.7 |
| 20260831002003 | 64 | 235 | 6.0 | 13.0 | 0.00 | 0.25 | 0.25 | 49 | 1040.5 |
| 20260831001721 | 64 | 236 | 5.0 | 12.0 | 0.00 | 0.25 | 0.25 | 48 | 1040.6 |
| 20260831001003 | 64 | 228 | 2.0 | 7.0 | 0.00 | 0.25 | 0.25 | 47 | 1040.4 |
| 20260831000722 | 64 | 227 | 2.0 | 7.0 | 0.00 | 0.25 | 0.25 | 48 | 1040.4 |
| 20260831000003 | 64 | 269 | 3.0 | 7.0 | 0.00 | 0.25 | 0.25 | 47 | 1040.2 |
| 20260830235503 | 64 | 310 | 3.0 | 5.0 | 0.00 | 0.25 | 0.25 | 50 | 1040.2 |
| 20260830235003 | 64 | 314 | 4.0 | 8.0 | 0.00 | 0.25 | 0.25 | 50 | 1040.2 |
| 20260830234718 | 64 | 310 | 4.0 | 8.0 | 0.00 | 0.25 | 0.25 | 50 | 1040.1 |
| 20260830234003 | 64 | 304 | 3.0 | 7.0 | 0.00 | 0.25 | 0.25 | 49 | 1040.3 |
| 20260830233503 | 65 | 303 | 3.0 | 7.0 | 0.00 | 0.25 | 0.25 | 49 | 1040.3 |
| 20260830233003 | 65 | 290 | 2.0 | 7.0 | 0.00 | 0.25 | 0.25 | 48 | 1040.2 |
| 20260830232503 | 66 | 304 | 2.0 | 4.0 | 0.00 | 0.25 | 0.25 | 49 | 1040.2 |
| 20260830232003 | 66 | 5 | 1.0 | 5.0 | 0.00 | 0.25 | 0.25 | 50 | 1040.1 |
| 20260830231503 | 66 | 310 | 2.0 | 5.0 | 0.00 | 0.25 | 0.25 | 50 | 1040.1 |
| 20260830231219 | 66 | 312 | 2.0 | 5.0 | 0.00 | 0.25 | 0.25 | 49 | 1040.2 |
| 20260830230503 | 66 | 314 | 2.0 | 8.0 | 0.00 | 0.25 | 0.25 | 50 | 1040.1 |
| 20260830230003 | 66 | 309 | 2.0 | 8.0 | 0.00 | 0.25 | 0.25 | 52 | 1040.1 |
| 20260830225503 | 66 | 313 | 2.0 | 8.0 | 0.00 | 0.25 | 0.25 | 51 | 1040.3 |
| 20260830225003 | 66 | 317 | 3.0 | 8.0 | 0.00 | 0.25 | 0.25 | 50 | 1040.3 |
| 20260830224503 | 66 | 315 | 3.0 | 6.0 | 0.00 | 0.25 | 0.25 | 50 | 1040.3 |
| 20260830224003 | 66 | 310 | 2.0 | 8.0 | 0.00 | 0.25 | 0.25 | 52 | 1040.4 |
| 20260830223503 | 65 | 306 | 3.0 | 8.0 | 0.00 | 0.25 | 0.25 | 52 | 1040.5 |
| 20260830223003 | 65 | 309 | 3.0 | 9.0 | 0.00 | 0.25 | 0.25 | 52 | 1040.5 |
| 20260830222503 | 64 | 312 | 4.0 | 10.0 | 0.00 | 0.25 | 0.25 | 58 | 1040.5 |
| 20260830222003 | 62 | 316 | 5.0 | 11.0 | 0.00 | 0.25 | 0.25 | 62 | 1040.5 |
| 20260830221503 | 60 | 318 | 6.0 | 11.0 | 0.00 | 0.25 | 0.25 | 63 | 1040.5 |
| 20260830221003 | 60 | 318 | 7.0 | 14.0 | 0.00 | 0.25 | 0.25 | 63 | 1040.5 |
| 20260830220503 | 59 | 318 | 7.0 | 14.0 | 0.00 | 0.25 | 0.25 | 64 | 1040.4 |
| 20260830220003 | 59 | 316 | 7.0 | 14.0 | 0.00 | 0.25 | 0.25 | 65 | 1040.5 |
| 20260830215503 | 60 | 309 | 9.0 | 18.0 | 0.00 | 0.25 | 0.25 | 65 | 1040.7 |
| 20260830215003 | 60 | 307 | 12.0 | 25.0 | 0.00 | 0.25 | 0.25 | 65 | 1040.7 |
| 20260830214503 | 62 | 301 | 8.0 | 25.0 | 0.00 | 0.25 | 0.25 | 60 | 1040.7 |
| 20260830214003 | 65 | 253 | 3.0 | 13.0 | 0.00 | 0.25 | 0.25 | 62 | 1040.6 |
| 20260830213503 | 65 | 266 | 2.0 | 6.0 | 0.00 | 0.25 | 0.25 | 56 | 1040.2 |
| 20260830213003 | 64 | 357 | 1.0 | 4.0 | 0.00 | 0.25 | 0.25 | 65 | 1040.1 |
| 20260830212503 | 64 | 305 | 1.0 | 3.0 | 0.00 | 0.25 | 0.25 | 63 | 1040.2 |
| 20260830212003 | 64 | 304 | 1.0 | 3.0 | 0.00 | 0.25 | 0.25 | 73 | 1040.0 |
| 20260830211503 | 63 | 304 | 1.0 | 2.0 | 0.00 | 0.25 | 0.25 | 70 | 1040.1 |
| 20260830211003 | 62 | 296 | 1.0 | 2.0 | 0.00 | 0.25 | 0.25 | 75 | 1040.2 |
| 20260830210503 | 61 | 300 | 1.0 | 5.0 | 0.04 | 0.25 | 0.25 | 71 | 1040.2 |
| 20260830210221 | 61 | 309 | 1.0 | 5.0 | 0.15 | 0.25 | 0.25 | 79 | 1040.3 |
| 20260830205503 | 60 | 323 | 2.0 | 7.0 | 0.25 | 0.25 | 0.25 | 76 | 1040.4 |
| 20260830205003 | 59 | 319 | 2.0 | 6.0 | 0.25 | 0.25 | 0.25 | 85 | 1040.4 |
| 20260830204503 | 58 | 317 | 1.0 | 3.0 | 0.25 | 0.25 | 0.25 | 86 | 1040.3 |
| 20260830204218 | 58 | 317 | 1.0 | 3.0 | 0.25 | 0.25 | 0.25 | 87 | 1040.4 |
| 20260830203503 | 57 | 317 | 1.0 | 3.0 | 0.25 | 0.25 | 0.25 | 87 | 1040.5 |
| 20260830203003 | 56 | 342 | 1.0 | 3.0 | 0.25 | 0.25 | 0.25 | 84 | 1040.5 |
| 20260830202503 | 56 | 65 | 1.0 | 3.0 | 0.25 | 0.25 | 0.25 | 83 | 1040.5 |
| 20260830202003 | 55 | 36 | 1.0 | 2.0 | 0.25 | 0.25 | 0.25 | 79 | 1040.3 |
| 20260830201503 | 55 | 334 | 1.0 | 9.0 | 0.25 | 0.25 | 0.25 | 79 | 1040.2 |
| 20260830201003 | 54 | 319 | 6.0 | 18.0 | 0.25 | 0.25 | 0.25 | 76 | 1040.3 |